FW5380 Weather Reports


Display with metric or nautical units.
time (UTC)temp
F
wind
direction
speed
MPH
gust
MPH
rain 1hr
in
rain 24hr
in
rain mn
in
humidity
%
barometer
mb
20260904013031 56 252 0.0 4.0 0.00 0.07 0.01 71 1012.9
20260904011546 56 308 1.0 6.0 0.00 0.07 0.01 70 1012.8
20260904010105 57 306 4.0 9.0 0.00 0.07 0.01 68 1012.7
20260904004531 58 303 6.0 15.0 0.00 0.07 0.01 68 1012.6
20260904003032 58 306 7.0 15.0 0.00 0.07 0.01 66 1012.6
20260904001532 59 306 6.0 14.0 0.00 0.07 0.01 63 1012.7
20260904000107 61 304 6.0 16.0 0.00 0.07 0.01 60 1012.5
20260903234529 62 325 7.0 12.0 0.00 0.07 0.01 56 1012.4
20260903233032 64 322 5.0 15.0 0.00 0.07 0.01 51 1012.4
20260903231531 67 305 5.0 11.0 0.00 0.07 0.01 47 1012.4
20260903230032 68 307 1.0 6.0 0.00 0.07 0.01 45 1012.4
20260903224531 69 136 1.0 5.0 0.00 0.07 0.01 43 1012.4
20260903223029 70 207 2.0 9.0 0.00 0.07 0.01 44 1012.5
20260903213106 69 205 5.0 11.0 0.00 0.07 0.01 47 1013.0
20260903211602 68 250 3.0 9.0 0.00 0.07 0.01 50 1012.8
20260903204531 67 216 5.0 12.0 0.00 0.07 0.01 51 1013.1
20260903203031 66 187 5.0 14.0 0.00 0.07 0.01 52 1013.2
20260903201530 66 179 6.0 16.0 0.00 0.07 0.01 55 1013.3
20260903200029 63 174 7.0 17.0 0.00 0.07 0.01 63 1013.6
20260903194532 61 177 6.0 14.0 0.00 0.07 0.01 67 1013.9
20260903193030 60 177 5.0 14.0 0.00 0.07 0.01 74 1014.1
20260903190032 57 14 3.0 7.0 0.00 0.07 0.01 85 1014.6
20260903184529 56 340 4.0 8.0 0.00 0.07 0.01 86 1014.7
20260903181610 56 321 3.0 7.0 0.00 0.07 0.01 88 1014.7
20260903180106 55 313 3.0 7.0 0.00 0.07 0.01 90 1014.6
20260903174528 54 333 2.0 6.0 0.00 0.07 0.01 92 1014.6
20260903173106 53 341 3.0 7.0 0.00 0.07 0.01 93 1014.6
20260903171531 53 343 3.0 7.0 0.00 0.07 0.01 95 1014.6
20260903170030 52 298 1.0 4.0 0.00 0.07 0.01 96 1014.7
20260903164529 52 340 2.0 5.0 0.00 0.07 0.01 96 1014.8
20260903163030 52 311 2.0 7.0 0.00 0.07 0.01 96 1014.7
20260903161531 52 277 2.0 6.0 0.00 0.07 0.01 96 1014.8
20260903160148 51 267 2.0 5.0 0.00 0.07 0.01 96 1014.8
20260903154530 50 289 2.0 6.0 0.00 0.07 0.01 96 1014.7
20260903153029 49 273 0.0 3.0 0.00 0.07 0.01 96 1014.8
20260903151529 48 247 0.0 0.0 0.00 0.07 0.01 96 1014.8
20260903150030 47 274 0.0 2.0 0.00 0.07 0.01 96 1014.7
20260903144530 47 360 0.0 0.0 0.00 0.07 0.01 96 1014.8
20260903143032 46 5 0.0 3.0 0.00 0.07 0.01 96 1014.7
20260903141528 45 164 1.0 4.0 0.00 0.07 0.01 96 1014.5
20260903140109 45 226 0.0 3.0 0.00 0.07 0.01 96 1014.4
20260903134531 45 188 2.0 4.0 0.00 0.07 0.01 96 1014.3
20260903133106 45 179 2.0 4.0 0.00 0.07 0.01 96 1014.4
20260903130030 45 183 1.0 4.0 0.00 0.07 0.01 96 1014.3
20260903124528 44 175 3.0 5.0 0.00 0.07 0.01 96 1014.2
20260903123032 43 202 1.0 5.0 0.00 0.07 0.01 95 1014.1
20260903121529 43 176 3.0 5.0 0.00 0.07 0.01 95 1014.2
20260903120030 43 183 3.0 5.0 0.00 0.07 0.01 95 1014.2
20260903114650 0 0 0.0 0.0 0.00 0.07 0.01 100
20260903113030 44 205 3.0 7.0 0.00 0.07 0.01 95 1014.0
20260903111532 44 188 3.0 9.0 0.00 0.07 0.01 95 1013.8
20260903110108 43 177 3.0 9.0 0.00 0.07 0.01 95 1013.8
20260903104532 44 196 1.0 6.0 0.01 0.07 0.01 95 1013.7
20260903103032 44 199 2.0 5.0 0.01 0.07 0.01 95 1013.8
20260903100104 44 185 2.0 4.0 0.01 0.07 0.00 94 1013.7
20260903094607 44 181 2.0 4.0 0.00 0.06 0.00 94 1013.5
20260903091531 45 172 2.0 5.0 0.00 0.06 0.00 94 1013.7
20260903084604 48 180 1.0 3.0 0.00 0.06 0.00 94 1013.5
20260903083032 49 179 2.0 4.0 0.00 0.06 0.00 94 1013.4
20260903081530 49 167 3.0 7.0 0.00 0.06 0.00 94 1013.4
20260903080029 48 177 2.0 4.0 0.00 0.06 0.00 94 1013.6
20260903074531 48 117 2.0 4.0 0.00 0.06 0.00 94 1013.3
20260903073031 48 180 2.0 4.0 0.00 0.06 0.00 93 1013.2
20260903071530 48 171 1.0 4.0 0.00 0.06 0.00 93 1013.0
20260903070029 48 180 0.0 2.0 0.00 0.06 0.00 93 1013.0
20260903064531 48 168 2.0 4.0 0.00 0.06 0.06 92 1012.9
20260903063028 49 180 1.0 3.0 0.00 0.06 0.06 92 1012.9
20260903061530 50 180 1.0 3.0 0.00 0.06 0.06 91 1013.0
20260903060030 51 86 0.0 3.0 0.00 0.06 0.06 91 1012.9
20260903054531 52 67 0.0 0.0 0.00 0.06 0.06 91 1013.1
20260903053029 53 67 0.0 0.0 0.00 0.06 0.06 91 1013.2
20260903050030 53 65 1.0 4.0 0.00 0.06 0.06 90 1012.8
20260903043029 53 90 0.0 2.0 0.01 0.06 0.06 89 1012.7
20260903041530 53 81 0.0 3.0 0.02 0.06 0.06 88 1012.5
20260903040029 53 315 0.0 0.0 0.06 0.06 0.06 86 1012.4
20260903034530 54 315 0.0 2.0 0.06 0.06 0.05 84 1012.1
20260903031606 58 293 5.0 13.0 0.04 0.04 0.00 80 1011.9
20260903030030 58 247 2.0 11.0 0.00 0.00 0.00 79 1011.3
20260903024530 59 205 2.0 5.0 0.00 0.00 0.00 79 1011.0
20260903023031 59 180 3.0 7.0 0.00 0.00 0.00 79 1010.8
20260903021530 59 183 2.0 6.0 0.00 0.00 0.00 79 1010.8
20260903020030 59 168 3.0 9.0 0.00 0.00 0.00 80 1010.8